Time,TemperatureF,DewpointF,PressureIn,WindDirection,WindDirectionDegrees,WindSpeedMPH,WindSpeedGustMPH,Humidity,HourlyPrecipIn,Conditions,Clouds,dailyrainin,SoftwareType,DateUTC
2013-09-21 00:01:00,64.2,61.3,29.83,West,270,0.0,0.0,90,0.02,,,0.00,WUHU21623XXSP,2013-09-21 04:01:00,
2013-09-21 00:02:00,64.2,61.3,29.83,West,270,0.0,0.0,90,0.02,,,0.00,WUHU21623XXSP,2013-09-21 04:02:00,
2013-09-21 00:07:00,64.0,61.2,29.83,West,270,0.0,0.0,90,0.02,,,0.00,WUHU21623XXSP,2013-09-21 04:07:00,
2013-09-21 00:11:00,64.0,61.2,29.83,West,270,0.0,0.0,90,0.02,,,0.00,WUHU21623XXSP,2013-09-21 04:11:00,
2013-09-21 00:16:00,63.5,60.6,29.83,West,270,0.0,0.0,90,0.02,,,0.00,WUHU21623XXSP,2013-09-21 04:16:00,
2013-09-21 00:22:00,63.3,60.4,29.83,West,270,0.0,0.0,90,0.02,,,0.00,WUHU21623XXSP,2013-09-21 04:22:00,
2013-09-21 00:26:00,63.1,60.3,29.83,West,270,0.0,0.0,90,0.00,,,0.00,WUHU21623XXSP,2013-09-21 04:26:00,
2013-09-21 00:31:00,63.1,60.3,29.83,West,270,0.0,0.0,90,0.00,,,0.00,WUHU21623XXSP,2013-09-21 04:31:00,
2013-09-21 00:37:00,62.8,59.9,29.84,West,270,0.0,0.0,90,0.00,,,0.00,WUHU21623XXSP,2013-09-21 04:37:00,
2013-09-21 00:41:00,62.6,59.7,29.84,West,270,0.0,0.0,90,0.00,,,0.00,WUHU21623XXSP,2013-09-21 04:41:00,
2013-09-21 00:47:00,62.4,59.5,29.83,West,270,0.0,0.0,90,0.00,,,0.00,WUHU21623XXSP,2013-09-21 04:47:00,
2013-09-21 00:52:00,62.2,59.4,29.83,West,270,0.0,0.0,90,0.00,,,0.00,WUHU21623XXSP,2013-09-21 04:52:00,
2013-09-21 00:57:00,62.1,59.2,29.83,West,270,0.0,0.0,90,0.00,,,0.00,WUHU21623XXSP,2013-09-21 04:57:00,
2013-09-21 01:02:00,62.1,59.2,29.83,West,270,0.0,0.0,90,0.00,,,0.00,WUHU21623XXSP,2013-09-21 05:02:00,
2013-09-21 01:07:00,61.9,59.0,29.82,West,270,0.0,0.0,90,0.00,,,0.00,WUHU21623XXSP,2013-09-21 05:07:00,
2013-09-21 01:12:00,61.7,58.8,29.83,NW,315,0.0,0.0,90,0.00,,,0.00,WUHU21623XXSP,2013-09-21 05:12:00,
2013-09-21 01:17:00,61.5,58.6,29.82,NW,315,0.0,0.0,90,0.00,,,0.00,WUHU21623XXSP,2013-09-21 05:17:00,
2013-09-21 01:22:00,61.5,58.6,29.82,NW,315,0.0,0.0,90,0.00,,,0.00,WUHU21623XXSP,2013-09-21 05:22:00,
2013-09-21 01:27:00,61.3,58.5,29.83,NW,315,0.0,0.0,90,0.00,,,0.00,WUHU21623XXSP,2013-09-21 05:27:00,
2013-09-21 01:32:00,61.3,58.5,29.82,NW,315,0.0,0.0,90,0.00,,,0.00,WUHU21623XXSP,2013-09-21 05:32:00,
2013-09-21 01:37:00,61.2,58.3,29.82,NW,315,0.0,0.0,90,0.00,,,0.00,WUHU21623XXSP,2013-09-21 05:37:00,
2013-09-21 01:42:00,61.0,58.1,29.83,NW,315,0.0,0.0,90,0.00,,,0.00,WUHU21623XXSP,2013-09-21 05:42:00,
2013-09-21 01:47:00,61.0,58.1,29.82,NW,315,0.0,0.0,90,0.00,,,0.00,WUHU21623XXSP,2013-09-21 05:47:00,
2013-09-21 01:52:00,60.6,57.7,29.83,NW,315,0.0,0.0,90,0.00,,,0.00,WUHU21623XXSP,2013-09-21 05:52:00,
2013-09-21 01:57:00,60.6,57.7,29.83,NW,315,0.0,0.0,90,0.00,,,0.00,WUHU21623XXSP,2013-09-21 05:57:00,
2013-09-21 02:02:00,60.6,57.7,29.83,NW,315,0.0,0.0,90,0.00,,,0.00,WUHU21623XXSP,2013-09-21 06:02:00,
2013-09-21 02:10:00,60.6,57.7,29.83,NW,315,0.0,0.0,90,0.00,,,0.00,WUHU21623XXSP,2013-09-21 06:10:00,
2013-09-21 02:15:00,60.3,57.1,29.83,NW,315,0.0,0.0,89,0.00,,,0.00,WUHU21623XXSP,2013-09-21 06:15:00,
2013-09-21 02:20:00,60.1,56.9,29.83,NW,315,0.0,0.0,89,0.00,,,0.00,WUHU21623XXSP,2013-09-21 06:20:00,
2013-09-21 02:25:00,60.1,56.9,29.83,NW,315,0.0,0.0,89,0.00,,,0.00,WUHU21623XXSP,2013-09-21 06:25:00,
2013-09-21 02:30:00,59.7,56.5,29.83,NW,315,0.0,0.0,89,0.00,,,0.00,WUHU21623XXSP,2013-09-21 06:30:00,
2013-09-21 02:35:00,59.7,56.5,29.83,NW,315,0.0,0.0,89,0.00,,,0.00,WUHU21623XXSP,2013-09-21 06:35:00,
2013-09-21 02:40:00,59.5,56.3,29.83,NW,315,0.0,0.0,89,0.00,,,0.00,WUHU21623XXSP,2013-09-21 06:40:00,
2013-09-21 02:45:00,59.5,56.3,29.82,NW,315,0.0,0.0,89,0.00,,,0.00,WUHU21623XXSP,2013-09-21 06:45:00,
2013-09-21 02:50:00,59.2,56.0,29.82,NW,315,0.0,0.0,89,0.00,,,0.00,WUHU21623XXSP,2013-09-21 06:50:00,
2013-09-21 02:55:00,59.0,55.8,29.82,NW,315,0.0,0.0,89,0.00,,,0.00,WUHU21623XXSP,2013-09-21 06:55:00,
2013-09-21 03:00:00,58.8,55.6,29.82,NW,315,0.0,0.0,89,0.00,,,0.00,WUHU21623XXSP,2013-09-21 07:00:00,
2013-09-21 03:05:00,58.8,55.6,29.82,NW,315,0.0,0.0,89,0.00,,,0.00,WUHU21623XXSP,2013-09-21 07:05:00,
2013-09-21 03:10:00,58.8,55.6,29.82,NW,315,0.0,0.0,89,0.00,,,0.00,WUHU21623XXSP,2013-09-21 07:10:00,
2013-09-21 03:15:00,58.8,55.3,29.82,NW,315,0.0,0.0,88,0.00,,,0.00,WUHU21623XXSP,2013-09-21 07:15:00,
2013-09-21 03:20:00,58.6,55.1,29.82,NW,315,0.0,0.0,88,0.00,,,0.00,WUHU21623XXSP,2013-09-21 07:20:00,
2013-09-21 03:25:00,58.5,54.9,29.82,NW,315,0.0,0.0,88,0.00,,,0.00,WUHU21623XXSP,2013-09-21 07:25:00,
2013-09-21 03:30:00,58.1,54.6,29.82,NW,315,0.0,0.0,88,0.00,,,0.00,WUHU21623XXSP,2013-09-21 07:30:00,
2013-09-21 03:35:00,57.9,54.4,29.82,NW,315,0.0,0.0,88,0.00,,,0.00,WUHU21623XXSP,2013-09-21 07:35:00,
2013-09-21 03:41:00,57.9,54.4,29.82,NW,315,0.0,0.0,88,0.00,,,0.00,WUHU21623XXSP,2013-09-21 07:41:00,
2013-09-21 03:46:00,57.7,54.2,29.81,NW,315,0.0,0.0,88,0.00,,,0.00,WUHU21623XXSP,2013-09-21 07:46:00,
2013-09-21 03:51:00,57.7,54.2,29.81,NW,315,0.0,0.0,88,0.00,,,0.00,WUHU21623XXSP,2013-09-21 07:51:00,
2013-09-21 03:56:00,57.6,54.0,29.82,NW,315,0.0,0.0,88,0.00,,,0.00,WUHU21623XXSP,2013-09-21 07:56:00,
2013-09-21 04:01:00,57.4,53.9,29.82,NW,315,0.0,0.0,88,0.00,,,0.00,WUHU21623XXSP,2013-09-21 08:01:00,
2013-09-21 04:10:00,57.4,53.9,29.82,NW,315,0.0,0.0,88,0.00,,,0.00,WUHU21623XXSP,2013-09-21 08:10:00,
2013-09-21 04:15:00,57.0,53.5,29.81,NW,315,0.0,0.0,88,0.00,,,0.00,WUHU21623XXSP,2013-09-21 08:15:00,
2013-09-21 04:20:00,57.0,53.5,29.81,NW,315,0.0,0.0,88,0.00,,,0.00,WUHU21623XXSP,2013-09-21 08:20:00,
2013-09-21 04:25:00,57.0,53.5,29.81,NW,315,0.0,0.0,88,0.00,,,0.00,WUHU21623XXSP,2013-09-21 08:25:00,
2013-09-21 04:30:00,56.8,53.3,29.80,NW,315,0.0,0.0,88,0.00,,,0.00,WUHU21623XXSP,2013-09-21 08:30:00,
2013-09-21 04:35:00,56.8,53.3,29.81,NW,315,0.0,0.0,88,0.00,,,0.00,WUHU21623XXSP,2013-09-21 08:35:00,
2013-09-21 04:40:00,56.7,53.1,29.81,NW,315,0.0,0.0,88,0.00,,,0.00,WUHU21623XXSP,2013-09-21 08:40:00,
2013-09-21 04:45:00,56.5,53.0,29.80,NW,315,0.0,0.0,88,0.00,,,0.00,WUHU21623XXSP,2013-09-21 08:45:00,
2013-09-21 04:50:00,56.5,53.0,29.80,NW,315,0.0,0.0,88,0.00,,,0.00,WUHU21623XXSP,2013-09-21 08:50:00,
2013-09-21 04:55:00,56.5,53.0,29.80,WNW,292,0.0,0.0,88,0.00,,,0.00,WUHU21623XXSP,2013-09-21 08:55:00,
2013-09-21 05:00:00,56.5,53.0,29.80,WNW,292,0.0,0.0,88,0.00,,,0.00,WUHU21623XXSP,2013-09-21 09:00:00,
2013-09-21 05:05:00,56.5,53.0,29.80,WNW,292,0.0,0.0,88,0.00,,,0.00,WUHU21623XXSP,2013-09-21 09:05:00,
2013-09-21 05:10:00,56.5,53.0,29.80,WNW,292,0.0,0.0,88,0.00,,,0.00,WUHU21623XXSP,2013-09-21 09:10:00,
2013-09-21 05:15:00,56.1,52.6,29.80,WNW,292,0.0,0.0,88,0.00,,,0.00,WUHU21623XXSP,2013-09-21 09:15:00,
2013-09-21 05:20:00,55.9,52.4,29.80,NW,315,0.0,0.0,88,0.00,,,0.00,WUHU21623XXSP,2013-09-21 09:20:00,
2013-09-21 05:25:00,55.9,52.4,29.80,NW,315,0.0,0.0,88,0.00,,,0.00,WUHU21623XXSP,2013-09-21 09:25:00,
2013-09-21 05:30:00,55.9,52.4,29.80,West,270,0.0,0.0,88,0.00,,,0.00,WUHU21623XXSP,2013-09-21 09:30:00,
2013-09-21 05:35:00,55.9,52.4,29.80,West,270,0.0,0.0,88,0.00,,,0.00,WUHU21623XXSP,2013-09-21 09:35:00,
2013-09-21 05:40:00,55.8,52.2,29.80,West,270,0.0,0.0,88,0.00,,,0.00,WUHU21623XXSP,2013-09-21 09:40:00,
2013-09-21 05:45:00,55.8,52.2,29.79,West,270,0.0,0.0,88,0.00,,,0.00,WUHU21623XXSP,2013-09-21 09:45:00,
2013-09-21 05:50:00,55.6,52.1,29.80,West,270,0.0,0.0,88,0.00,,,0.00,WUHU21623XXSP,2013-09-21 09:50:00,
2013-09-21 05:55:00,55.6,52.1,29.80,West,270,0.0,0.0,88,0.00,,,0.00,WUHU21623XXSP,2013-09-21 09:55:00,
2013-09-21 06:00:00,55.4,51.9,29.80,West,270,0.0,0.0,88,0.00,,,0.00,WUHU21623XXSP,2013-09-21 10:00:00,
2013-09-21 06:05:00,55.4,51.9,29.80,West,270,0.0,0.0,88,0.00,,,0.00,WUHU21623XXSP,2013-09-21 10:05:00,
2013-09-21 06:10:00,55.2,51.7,29.80,North,0,0.0,0.0,88,0.00,,,0.00,WUHU21623XXSP,2013-09-21 10:10:00,
2013-09-21 06:15:00,55.2,51.7,29.80,West,270,0.0,0.0,88,0.00,,,0.00,WUHU21623XXSP,2013-09-21 10:15:00,
2013-09-21 06:20:00,55.2,51.7,29.80,WNW,292,0.0,0.0,88,0.00,,,0.00,WUHU21623XXSP,2013-09-21 10:20:00,
2013-09-21 06:25:00,55.0,51.5,29.80,WNW,292,0.0,0.0,88,0.00,,,0.00,WUHU21623XXSP,2013-09-21 10:25:00,
2013-09-21 06:30:00,55.0,51.5,29.80,WNW,292,0.0,0.0,88,0.00,,,0.00,WUHU21623XXSP,2013-09-21 10:30:00,
2013-09-21 06:35:00,55.0,51.5,29.80,WNW,292,0.0,0.0,88,0.00,,,0.00,WUHU21623XXSP,2013-09-21 10:35:00,
2013-09-21 06:40:00,54.7,51.2,29.80,WNW,292,0.0,0.0,88,0.00,,,0.00,WUHU21623XXSP,2013-09-21 10:40:00,
2013-09-21 06:45:00,54.7,51.2,29.80,WNW,292,0.0,0.0,88,0.00,,,0.00,WUHU21623XXSP,2013-09-21 10:45:00,
2013-09-21 06:50:00,54.5,51.0,29.81,WNW,292,0.0,0.0,88,0.00,,,0.00,WUHU21623XXSP,2013-09-21 10:50:00,
2013-09-21 06:55:00,54.5,51.0,29.80,WNW,292,0.0,0.0,88,0.00,,,0.00,WUHU21623XXSP,2013-09-21 10:55:00,
2013-09-21 07:00:00,54.3,50.8,29.81,WNW,292,0.0,0.0,88,0.00,,,0.00,WUHU21623XXSP,2013-09-21 11:00:00,
2013-09-21 07:05:00,54.3,50.8,29.81,WNW,292,0.0,0.0,88,0.00,,,0.00,WUHU21623XXSP,2013-09-21 11:05:00,
2013-09-21 07:10:00,54.3,50.8,29.81,WNW,292,0.0,0.0,88,0.00,,,0.00,WUHU21623XXSP,2013-09-21 11:10:00,
2013-09-21 07:15:00,54.1,50.6,29.81,WNW,292,0.0,0.0,88,0.00,,,0.00,WUHU21623XXSP,2013-09-21 11:15:00,
2013-09-21 07:20:00,54.1,50.6,29.81,WNW,292,0.0,0.0,88,0.00,,,0.00,WUHU21623XXSP,2013-09-21 11:20:00,
2013-09-21 07:25:00,54.1,50.6,29.82,WNW,292,0.0,0.0,88,0.00,,,0.00,WUHU21623XXSP,2013-09-21 11:25:00,
2013-09-21 07:30:00,54.0,50.8,29.82,WNW,292,0.0,0.0,89,0.00,,,0.00,WUHU21623XXSP,2013-09-21 11:30:00,
2013-09-21 07:35:00,54.0,50.8,29.82,WNW,292,0.0,0.0,89,0.00,,,0.00,WUHU21623XXSP,2013-09-21 11:35:00,
2013-09-21 07:40:00,53.8,50.6,29.82,WNW,292,0.0,0.0,89,0.00,,,0.00,WUHU21623XXSP,2013-09-21 11:40:00,
2013-09-21 07:45:00,53.8,50.6,29.82,WNW,292,0.0,0.0,89,0.00,,,0.00,WUHU21623XXSP,2013-09-21 11:45:00,
2013-09-21 07:50:00,53.8,50.6,29.82,WNW,292,0.0,0.0,89,0.00,,,0.00,WUHU21623XXSP,2013-09-21 11:50:00,
2013-09-21 07:55:00,53.8,50.6,29.82,WNW,292,0.0,0.0,89,0.00,,,0.00,WUHU21623XXSP,2013-09-21 11:55:00,
2013-09-21 08:00:00,53.6,50.4,29.82,WNW,292,0.0,0.0,89,0.00,,,0.00,WUHU21623XXSP,2013-09-21 12:00:00,
2013-09-21 08:05:00,53.4,50.2,29.82,WNW,292,0.0,0.0,89,0.00,,,0.00,WUHU21623XXSP,2013-09-21 12:05:00,
2013-09-21 08:10:00,53.4,50.2,29.82,WNW,292,0.0,0.0,89,0.00,,,0.00,WUHU21623XXSP,2013-09-21 12:10:00,
2013-09-21 08:15:00,53.4,50.2,29.82,WNW,292,0.0,0.0,89,0.00,,,0.00,WUHU21623XXSP,2013-09-21 12:15:00,
2013-09-21 08:20:00,53.4,50.2,29.82,WNW,292,0.0,0.0,89,0.00,,,0.00,WUHU21623XXSP,2013-09-21 12:20:00,
2013-09-21 08:25:00,53.4,50.2,29.83,WNW,292,0.0,0.0,89,0.00,,,0.00,WUHU21623XXSP,2013-09-21 12:25:00,
2013-09-21 08:30:00,53.4,50.2,29.82,WNW,292,0.0,0.0,89,0.00,,,0.00,WUHU21623XXSP,2013-09-21 12:30:00,
2013-09-21 08:35:00,53.4,50.2,29.82,WNW,292,0.0,0.0,89,0.00,,,0.00,WUHU21623XXSP,2013-09-21 12:35:00,
2013-09-21 08:40:00,53.4,50.2,29.83,WNW,292,0.0,0.0,89,0.00,,,0.00,WUHU21623XXSP,2013-09-21 12:40:00,
2013-09-21 08:45:00,53.4,50.2,29.83,WNW,292,0.0,0.0,89,0.00,,,0.00,WUHU21623XXSP,2013-09-21 12:45:00,
2013-09-21 08:50:00,53.6,50.4,29.82,WNW,292,0.0,0.0,89,0.00,,,0.00,WUHU21623XXSP,2013-09-21 12:50:00,
2013-09-21 08:55:00,53.8,50.6,29.83,WNW,292,0.0,0.0,89,0.00,,,0.00,WUHU21623XXSP,2013-09-21 12:55:00,
2013-09-21 09:00:00,54.1,51.3,29.83,NW,315,0.0,0.0,90,0.00,,,0.00,WUHU21623XXSP,2013-09-21 13:00:00,
2013-09-21 09:05:00,54.1,51.3,29.83,NW,315,0.0,0.0,90,0.00,,,0.00,WUHU21623XXSP,2013-09-21 13:05:00,
2013-09-21 09:10:00,54.3,51.4,29.83,WNW,292,0.0,0.0,90,0.00,,,0.00,WUHU21623XXSP,2013-09-21 13:10:00,
2013-09-21 09:15:00,54.7,51.8,29.83,NW,315,0.0,0.0,90,0.00,,,0.00,WUHU21623XXSP,2013-09-21 13:15:00,
2013-09-21 09:20:00,55.0,52.2,29.83,NNW,337,0.0,0.0,90,0.00,,,0.00,WUHU21623XXSP,2013-09-21 13:20:00,
2013-09-21 09:25:00,55.6,52.7,29.83,NW,315,0.0,0.0,90,0.00,,,0.00,WUHU21623XXSP,2013-09-21 13:25:00,
2013-09-21 09:30:00,55.9,53.3,29.84,NW,315,0.0,0.0,91,0.00,,,0.00,WUHU21623XXSP,2013-09-21 13:30:00,
2013-09-21 09:35:00,56.1,53.2,29.84,NW,315,0.0,0.0,90,0.00,,,0.00,WUHU21623XXSP,2013-09-21 13:35:00,
2013-09-21 09:40:00,56.5,53.6,29.84,WNW,292,0.0,0.0,90,0.00,,,0.00,WUHU21623XXSP,2013-09-21 13:40:00,
2013-09-21 09:45:00,56.8,54.0,29.84,NW,315,0.0,0.0,90,0.00,,,0.00,WUHU21623XXSP,2013-09-21 13:45:00,
2013-09-21 09:50:00,56.8,54.0,29.84,WSW,247,0.0,0.0,90,0.00,,,0.00,WUHU21623XXSP,2013-09-21 13:50:00,
2013-09-21 09:55:00,57.0,54.1,29.84,NW,315,0.0,0.0,90,0.00,,,0.00,WUHU21623XXSP,2013-09-21 13:55:00,
2013-09-21 10:00:00,57.4,54.5,29.84,NNW,337,0.0,0.0,90,0.00,,,0.00,WUHU21623XXSP,2013-09-21 14:00:00,
2013-09-21 10:05:00,57.6,54.7,29.84,NNW,337,0.0,0.0,90,0.00,,,0.00,WUHU21623XXSP,2013-09-21 14:05:00,
2013-09-21 10:11:00,57.9,55.0,29.84,NW,315,0.0,0.0,90,0.00,,,0.00,WUHU21623XXSP,2013-09-21 14:11:00,
2013-09-21 10:16:00,58.1,55.2,29.84,NW,315,0.0,0.0,90,0.00,,,0.00,WUHU21623XXSP,2013-09-21 14:16:00,
2013-09-21 10:21:00,58.3,55.1,29.84,NW,315,0.0,0.0,89,0.00,,,0.00,WUHU21623XXSP,2013-09-21 14:21:00,
2013-09-21 10:26:00,58.8,55.6,29.84,NW,315,0.0,0.0,89,0.00,,,0.00,WUHU21623XXSP,2013-09-21 14:26:00,
2013-09-21 10:31:00,58.8,55.9,29.84,NW,315,0.0,0.0,90,0.00,,,0.00,WUHU21623XXSP,2013-09-21 14:31:00,
2013-09-21 10:36:00,58.8,55.9,29.84,North,0,0.0,0.0,90,0.00,,,0.00,WUHU21623XXSP,2013-09-21 14:36:00,
2013-09-21 10:41:00,59.2,56.0,29.84,NW,315,0.0,0.0,89,0.00,,,0.00,WUHU21623XXSP,2013-09-21 14:41:00,
2013-09-21 10:46:00,59.4,56.2,29.84,NW,315,0.0,0.0,89,0.00,,,0.00,WUHU21623XXSP,2013-09-21 14:46:00,
2013-09-21 10:51:00,59.5,56.0,29.84,NNW,337,0.0,0.0,88,0.00,,,0.00,WUHU21623XXSP,2013-09-21 14:51:00,
2013-09-21 10:56:00,59.7,56.2,29.84,NW,315,0.0,0.0,88,0.00,,,0.00,WUHU21623XXSP,2013-09-21 14:56:00,
2013-09-21 11:01:00,59.6,56.1,29.84,NW,315,0.0,0.0,88,0.00,,,0.00,WUHU21623XXSP,2013-09-21 15:01:00,
2013-09-21 11:06:00,59.9,56.0,29.84,NNE,22,0.0,0.0,87,0.00,,,0.00,WUHU21623XXSP,2013-09-21 15:06:00,
2013-09-21 11:11:00,59.7,55.8,29.84,NW,315,0.0,0.0,87,0.00,,,0.00,WUHU21623XXSP,2013-09-21 15:11:00,
2013-09-21 11:16:00,59.6,55.7,29.84,NW,315,0.0,0.0,87,0.00,,,0.00,WUHU21623XXSP,2013-09-21 15:16:00,
2013-09-21 11:21:00,59.5,55.3,29.84,NW,315,0.0,0.0,86,0.00,,,0.00,WUHU21623XXSP,2013-09-21 15:21:00,
2013-09-21 11:26:00,59.4,55.2,29.84,East,90,0.0,0.0,86,0.00,,,0.00,WUHU21623XXSP,2013-09-21 15:26:00,
2013-09-21 11:31:00,59.3,54.8,29.84,NNW,337,0.0,0.0,85,0.00,,,0.00,WUHU21623XXSP,2013-09-21 15:31:00,
2013-09-21 11:36:00,59.0,54.5,29.85,NNW,337,0.0,0.0,85,0.00,,,0.00,WUHU21623XXSP,2013-09-21 15:36:00,
2013-09-21 11:41:00,58.5,53.7,29.85,NW,315,0.0,0.0,84,0.00,,,0.00,WUHU21623XXSP,2013-09-21 15:41:00,
2013-09-21 11:46:00,58.5,53.7,29.85,NNW,337,0.0,0.0,84,0.00,,,0.00,WUHU21623XXSP,2013-09-21 15:46:00,
2013-09-21 11:51:00,58.3,53.5,29.85,NW,315,0.0,0.0,84,0.00,,,0.00,WUHU21623XXSP,2013-09-21 15:51:00,
2013-09-21 11:56:00,58.2,53.1,29.85,NW,315,0.0,0.0,83,0.00,,,0.00,WUHU21623XXSP,2013-09-21 15:56:00,
2013-09-21 12:01:00,58.1,53.0,29.85,NW,315,0.0,0.0,83,0.00,,,0.00,WUHU21623XXSP,2013-09-21 16:01:00,
2013-09-21 12:06:00,58.3,53.2,29.85,SE,135,0.0,0.0,83,0.00,,,0.00,WUHU21623XXSP,2013-09-21 16:06:00,
2013-09-21 12:11:00,58.1,53.0,29.85,NW,315,0.0,0.0,83,0.00,,,0.00,WUHU21623XXSP,2013-09-21 16:11:00,
2013-09-21 12:16:00,57.9,52.4,29.85,NW,315,0.0,0.0,82,0.00,,,0.00,WUHU21623XXSP,2013-09-21 16:16:00,
2013-09-21 12:21:00,57.5,51.8,29.85,NW,315,0.0,0.0,81,0.00,,,0.00,WUHU21623XXSP,2013-09-21 16:21:00,
2013-09-21 12:26:00,56.7,51.0,29.85,WNW,292,0.0,0.0,81,0.00,,,0.00,WUHU21623XXSP,2013-09-21 16:26:00,
2013-09-21 12:31:00,56.3,50.6,29.85,WNW,292,0.0,0.0,81,0.00,,,0.00,WUHU21623XXSP,2013-09-21 16:31:00,
2013-09-21 12:36:00,56.1,50.4,29.85,ENE,67,0.0,0.0,81,0.00,,,0.00,WUHU21623XXSP,2013-09-21 16:36:00,
2013-09-21 12:41:00,56.5,51.1,29.85,NW,315,0.0,0.0,82,0.00,,,0.00,WUHU21623XXSP,2013-09-21 16:41:00,
2013-09-21 12:46:00,56.8,51.4,29.85,NNW,337,0.0,0.0,82,0.00,,,0.00,WUHU21623XXSP,2013-09-21 16:46:00,
2013-09-21 12:51:00,56.6,51.2,29.86,NNW,337,0.0,0.0,82,0.00,,,0.00,WUHU21623XXSP,2013-09-21 16:51:00,
2013-09-21 12:56:00,56.3,50.2,29.86,NW,315,0.0,0.0,80,0.00,,,0.00,WUHU21623XXSP,2013-09-21 16:56:00,
2013-09-21 13:01:00,56.1,50.1,29.86,NW,315,0.0,0.0,80,0.00,,,0.00,WUHU21623XXSP,2013-09-21 17:01:00,
2013-09-21 13:06:00,55.7,49.6,29.86,NW,315,0.0,0.0,80,0.00,,,0.00,WUHU21623XXSP,2013-09-21 17:06:00,
2013-09-21 13:11:00,55.3,49.3,29.86,NW,315,0.0,0.0,80,0.00,,,0.00,WUHU21623XXSP,2013-09-21 17:11:00,
2013-09-21 13:16:00,55.2,48.8,29.85,NW,315,0.0,0.0,79,0.00,,,0.00,WUHU21623XXSP,2013-09-21 17:16:00,
2013-09-21 13:21:00,55.6,49.6,29.85,NW,315,0.0,0.0,80,0.00,,,0.00,WUHU21623XXSP,2013-09-21 17:21:00,
2013-09-21 13:26:00,55.7,49.3,29.85,NW,315,0.0,0.0,79,0.00,,,0.00,WUHU21623XXSP,2013-09-21 17:26:00,
2013-09-21 13:31:00,56.0,49.6,29.85,WNW,292,0.0,0.0,79,0.00,,,0.00,WUHU21623XXSP,2013-09-21 17:31:00,
2013-09-21 13:36:00,56.4,49.4,29.85,NW,315,0.0,0.0,77,0.00,,,0.00,WUHU21623XXSP,2013-09-21 17:36:00,
2013-09-21 13:41:00,56.8,49.7,29.85,NW,315,0.0,0.0,77,0.00,,,0.00,WUHU21623XXSP,2013-09-21 17:41:00,
2013-09-21 13:46:00,56.7,49.3,29.85,NNW,337,0.0,0.0,76,0.00,,,0.00,WUHU21623XXSP,2013-09-21 17:46:00,
2013-09-21 13:52:00,56.3,48.9,29.85,NW,315,0.0,0.0,76,0.00,,,0.00,WUHU21623XXSP,2013-09-21 17:52:00,
2013-09-21 13:57:00,56.1,48.7,29.85,WNW,292,0.0,0.0,76,0.00,,,0.00,WUHU21623XXSP,2013-09-21 17:57:00,
2013-09-21 14:02:00,56.1,48.4,29.84,West,270,0.0,0.0,75,0.00,,,0.00,WUHU21623XXSP,2013-09-21 18:02:00,
2013-09-21 14:07:00,56.7,48.6,29.84,NNW,337,0.0,0.0,74,0.00,,,0.00,WUHU21623XXSP,2013-09-21 18:07:00,
2013-09-21 14:12:00,57.0,48.6,29.84,NNW,337,0.0,0.0,73,0.00,,,0.00,WUHU21623XXSP,2013-09-21 18:12:00,
2013-09-21 14:17:00,57.3,48.8,29.84,NW,315,0.0,0.0,73,0.00,,,0.00,WUHU21623XXSP,2013-09-21 18:17:00,
2013-09-21 14:22:00,57.3,48.5,29.84,NW,315,0.0,0.0,72,0.00,,,0.00,WUHU21623XXSP,2013-09-21 18:22:00,
2013-09-21 14:27:00,57.8,48.6,29.84,NNW,337,0.0,0.0,71,0.00,,,0.00,WUHU21623XXSP,2013-09-21 18:27:00,
2013-09-21 14:32:00,57.9,48.3,29.84,NW,315,0.0,0.0,70,0.00,,,0.00,WUHU21623XXSP,2013-09-21 18:32:00,
2013-09-21 14:37:00,58.0,48.0,29.84,West,270,0.0,0.0,69,0.00,,,0.00,WUHU21623XXSP,2013-09-21 18:37:00,
2013-09-21 14:42:00,58.1,47.7,29.84,North,0,0.0,0.0,68,0.00,,,0.00,WUHU21623XXSP,2013-09-21 18:42:00,
2013-09-21 14:47:00,58.4,47.2,29.84,NNW,337,0.0,0.0,66,0.00,,,0.00,WUHU21623XXSP,2013-09-21 18:47:00,
2013-09-21 14:52:00,58.6,47.4,29.84,North,0,0.0,0.0,66,0.00,,,0.00,WUHU21623XXSP,2013-09-21 18:52:00,
2013-09-21 14:57:00,58.7,47.9,29.84,NW,315,0.0,0.0,67,0.00,,,0.00,WUHU21623XXSP,2013-09-21 18:57:00,
2013-09-21 15:02:00,58.9,48.1,29.84,NNE,22,0.0,0.0,67,0.00,,,0.00,WUHU21623XXSP,2013-09-21 19:02:00,
2013-09-21 15:07:00,59.1,48.3,29.85,NNE,22,0.0,0.0,67,0.00,,,0.00,WUHU21623XXSP,2013-09-21 19:07:00,
2013-09-21 15:12:00,59.2,48.4,29.85,NW,315,0.0,0.0,67,0.00,,,0.00,WUHU21623XXSP,2013-09-21 19:12:00,
2013-09-21 15:17:00,59.4,49.0,29.85,NW,315,0.0,0.0,68,0.00,,,0.00,WUHU21623XXSP,2013-09-21 19:17:00,
2013-09-21 15:22:00,59.8,48.6,29.85,NW,315,0.0,0.0,66,0.00,,,0.00,WUHU21623XXSP,2013-09-21 19:22:00,
2013-09-21 15:27:00,60.2,47.7,29.85,NW,315,0.0,0.0,63,0.00,,,0.00,WUHU21623XXSP,2013-09-21 19:27:00,
2013-09-21 15:32:00,60.7,49.0,29.85,NW,315,0.0,0.0,65,0.00,,,0.00,WUHU21623XXSP,2013-09-21 19:32:00,
2013-09-21 15:37:00,60.9,48.8,29.85,NW,315,0.0,0.0,64,0.00,,,0.00,WUHU21623XXSP,2013-09-21 19:37:00,
2013-09-21 15:42:00,60.7,48.6,29.85,NW,315,0.0,0.0,64,0.00,,,0.00,WUHU21623XXSP,2013-09-21 19:42:00,
2013-09-21 15:47:00,60.8,49.1,29.85,NW,315,0.0,0.0,65,0.00,,,0.00,WUHU21623XXSP,2013-09-21 19:47:00,
2013-09-21 15:52:00,60.9,49.2,29.85,WNW,292,0.0,0.0,65,0.00,,,0.00,WUHU21623XXSP,2013-09-21 19:52:00,
2013-09-21 15:57:00,61.0,49.7,29.85,WNW,292,0.0,0.0,66,0.00,,,0.00,WUHU21623XXSP,2013-09-21 19:57:00,
2013-09-21 16:02:00,61.2,49.9,29.85,NW,315,0.0,0.0,66,0.00,,,0.00,WUHU21623XXSP,2013-09-21 20:02:00,
2013-09-21 16:07:00,61.3,50.0,29.85,NW,315,0.0,0.0,66,0.00,,,0.00,WUHU21623XXSP,2013-09-21 20:07:00,
2013-09-21 16:12:00,61.8,50.5,29.85,NNW,337,0.0,0.0,66,0.00,,,0.00,WUHU21623XXSP,2013-09-21 20:12:00,
2013-09-21 16:17:00,62.4,51.0,29.85,NW,315,0.0,0.0,66,0.00,,,0.00,WUHU21623XXSP,2013-09-21 20:17:00,
2013-09-21 16:22:00,62.8,51.0,29.85,NW,315,0.0,0.0,65,0.00,,,0.00,WUHU21623XXSP,2013-09-21 20:22:00,
2013-09-21 16:27:00,63.3,51.5,29.85,NW,315,0.0,0.0,65,0.00,,,0.00,WUHU21623XXSP,2013-09-21 20:27:00,
2013-09-21 16:32:00,64.1,51.4,29.85,NW,315,0.0,0.0,63,0.00,,,0.00,WUHU21623XXSP,2013-09-21 20:32:00,
2013-09-21 16:37:00,64.6,51.9,29.85,NW,315,0.0,0.0,63,0.00,,,0.00,WUHU21623XXSP,2013-09-21 20:37:00,
2013-09-21 16:42:00,64.9,52.2,29.85,NW,315,0.0,0.0,63,0.00,,,0.00,WUHU21623XXSP,2013-09-21 20:42:00,
2013-09-21 16:47:00,65.0,51.4,29.85,NNE,22,0.0,0.0,61,0.00,,,0.00,WUHU21623XXSP,2013-09-21 20:47:00,
2013-09-21 16:52:00,65.3,51.7,29.85,NW,315,0.0,0.0,61,0.00,,,0.00,WUHU21623XXSP,2013-09-21 20:52:00,
2013-09-21 16:57:00,65.7,51.5,29.85,NW,315,0.0,0.0,60,0.00,,,0.00,WUHU21623XXSP,2013-09-21 20:57:00,
2013-09-21 17:02:00,65.7,51.9,29.85,NNW,337,0.0,0.0,61,0.00,,,0.00,WUHU21623XXSP,2013-09-21 21:02:00,
2013-09-21 17:07:00,65.7,51.9,29.85,WNW,292,0.0,0.0,61,0.00,,,0.00,WUHU21623XXSP,2013-09-21 21:07:00,
2013-09-21 17:12:00,65.5,51.7,29.85,NW,315,0.0,0.0,61,0.00,,,0.00,WUHU21623XXSP,2013-09-21 21:12:00,
2013-09-21 17:17:00,65.5,52.1,29.86,NW,315,0.0,0.0,62,0.00,,,0.00,WUHU21623XXSP,2013-09-21 21:17:00,
2013-09-21 17:22:00,65.3,51.9,29.86,NW,315,0.0,0.0,62,0.00,,,0.00,WUHU21623XXSP,2013-09-21 21:22:00,
2013-09-21 17:27:00,65.1,51.7,29.86,NNW,337,0.0,0.0,62,0.00,,,0.00,WUHU21623XXSP,2013-09-21 21:27:00,
2013-09-21 17:32:00,65.1,51.7,29.86,NNW,337,0.0,0.0,62,0.00,,,0.00,WUHU21623XXSP,2013-09-21 21:32:00,
2013-09-21 17:37:00,64.9,51.1,29.86,NW,315,0.0,0.0,61,0.00,,,0.00,WUHU21623XXSP,2013-09-21 21:37:00,
2013-09-21 17:42:00,64.9,50.7,29.86,NW,315,0.0,0.0,60,0.00,,,0.00,WUHU21623XXSP,2013-09-21 21:42:00,
2013-09-21 17:47:00,64.9,51.1,29.87,WNW,292,0.0,0.0,61,0.00,,,0.00,WUHU21623XXSP,2013-09-21 21:47:00,
2013-09-21 17:52:00,64.8,51.0,29.87,North,0,0.0,0.0,61,0.00,,,0.00,WUHU21623XXSP,2013-09-21 21:52:00,
2013-09-21 17:57:00,64.8,51.0,29.87,NW,315,0.0,0.0,61,0.00,,,0.00,WUHU21623XXSP,2013-09-21 21:57:00,
2013-09-21 18:02:00,64.2,50.9,29.87,NW,315,0.0,0.0,62,0.00,,,0.00,WUHU21623XXSP,2013-09-21 22:02:00,
2013-09-21 18:07:00,64.0,50.7,29.87,North,0,0.0,0.0,62,0.00,,,0.00,WUHU21623XXSP,2013-09-21 22:07:00,
2013-09-21 18:12:00,63.7,50.4,29.87,NW,315,0.0,0.0,62,0.00,,,0.00,WUHU21623XXSP,2013-09-21 22:12:00,
2013-09-21 18:17:00,63.5,50.6,29.88,NW,315,0.0,0.0,63,0.00,,,0.00,WUHU21623XXSP,2013-09-21 22:17:00,
2013-09-21 18:22:00,63.5,50.6,29.88,NW,315,0.0,0.0,63,0.00,,,0.00,WUHU21623XXSP,2013-09-21 22:22:00,
2013-09-21 18:27:00,63.3,50.5,29.88,NNE,22,0.0,0.0,63,0.00,,,0.00,WUHU21623XXSP,2013-09-21 22:27:00,
2013-09-21 18:32:00,63.1,50.3,29.88,NW,315,0.0,0.0,63,0.00,,,0.00,WUHU21623XXSP,2013-09-21 22:32:00,
2013-09-21 18:37:00,63.0,50.1,29.88,NW,315,0.0,0.0,63,0.00,,,0.00,WUHU21623XXSP,2013-09-21 22:37:00,
2013-09-21 18:42:00,62.6,49.8,29.88,NW,315,0.0,0.0,63,0.00,,,0.00,WUHU21623XXSP,2013-09-21 22:42:00,
2013-09-21 18:47:00,62.4,49.6,29.88,NW,315,0.0,0.0,63,0.00,,,0.00,WUHU21623XXSP,2013-09-21 22:47:00,
2013-09-21 18:52:00,62.1,49.3,29.89,NW,315,0.0,0.0,63,0.00,,,0.00,WUHU21623XXSP,2013-09-21 22:52:00,
2013-09-21 18:57:00,61.9,49.2,29.89,NNW,337,0.0,0.0,63,0.00,,,0.00,WUHU21623XXSP,2013-09-21 22:57:00,
2013-09-21 19:02:00,61.5,48.8,29.89,NW,315,0.0,0.0,63,0.00,,,0.00,WUHU21623XXSP,2013-09-21 23:02:00,
2013-09-21 19:07:00,61.3,49.1,29.89,NW,315,0.0,0.0,64,0.00,,,0.00,WUHU21623XXSP,2013-09-21 23:07:00,
2013-09-21 19:12:00,61.2,48.9,29.90,NW,315,0.0,0.0,64,0.00,,,0.00,WUHU21623XXSP,2013-09-21 23:12:00,
2013-09-21 19:17:00,60.6,48.8,29.90,NW,315,0.0,0.0,65,0.00,,,0.00,WUHU21623XXSP,2013-09-21 23:17:00,
2013-09-21 19:22:00,60.4,48.7,29.89,NW,315,0.0,0.0,65,0.00,,,0.00,WUHU21623XXSP,2013-09-21 23:22:00,
2013-09-21 19:27:00,60.1,48.9,29.89,NW,315,0.0,0.0,66,0.00,,,0.00,WUHU21623XXSP,2013-09-21 23:27:00,
2013-09-21 19:32:00,59.9,48.1,29.89,NW,315,0.0,0.0,65,0.00,,,0.00,WUHU21623XXSP,2013-09-21 23:32:00,
2013-09-21 19:37:00,59.7,48.3,29.90,NW,315,0.0,0.0,66,0.00,,,0.00,WUHU21623XXSP,2013-09-21 23:37:00,
2013-09-21 19:42:00,59.5,48.2,29.90,NW,315,0.0,0.0,66,0.00,,,0.00,WUHU21623XXSP,2013-09-21 23:42:00,
2013-09-21 19:47:00,59.0,47.6,29.90,NW,315,0.0,0.0,66,0.00,,,0.00,WUHU21623XXSP,2013-09-21 23:47:00,
2013-09-21 19:52:00,58.8,47.4,29.90,NW,315,0.0,0.0,66,0.00,,,0.00,WUHU21623XXSP,2013-09-21 23:52:00,
2013-09-21 19:57:00,58.8,47.9,29.90,NW,315,0.0,0.0,67,0.00,,,0.00,WUHU21623XXSP,2013-09-21 23:57:00,
2013-09-21 20:02:00,58.6,47.7,29.90,NW,315,0.0,0.0,67,0.00,,,0.00,WUHU21623XXSP,2013-09-22 00:02:00,
2013-09-21 20:07:00,58.5,47.5,29.90,NW,315,0.0,0.0,67,0.00,,,0.00,WUHU21623XXSP,2013-09-22 00:07:00,
2013-09-21 20:12:00,57.9,47.4,29.90,NW,315,0.0,0.0,68,0.00,,,0.00,WUHU21623XXSP,2013-09-22 00:12:00,
2013-09-21 20:17:00,57.9,47.4,29.91,NW,315,0.0,0.0,68,0.00,,,0.00,WUHU21623XXSP,2013-09-22 00:17:00,
2013-09-21 20:22:00,57.7,47.2,29.91,NW,315,0.0,0.0,68,0.00,,,0.00,WUHU21623XXSP,2013-09-22 00:22:00,
2013-09-21 20:27:00,57.6,47.0,29.91,NW,315,0.0,0.0,68,0.00,,,0.00,WUHU21623XXSP,2013-09-22 00:27:00,
2013-09-21 20:32:00,57.4,47.2,29.91,NW,315,0.0,0.0,69,0.00,,,0.00,WUHU21623XXSP,2013-09-22 00:32:00,
2013-09-21 20:37:00,57.0,46.9,29.91,NW,315,0.0,0.0,69,0.00,,,0.00,WUHU21623XXSP,2013-09-22 00:37:00,
2013-09-21 20:42:00,56.8,46.7,29.91,NW,315,0.0,0.0,69,0.00,,,0.00,WUHU21623XXSP,2013-09-22 00:42:00,
2013-09-21 20:47:00,56.5,46.8,29.91,NW,315,0.0,0.0,70,0.00,,,0.00,WUHU21623XXSP,2013-09-22 00:47:00,
2013-09-21 20:52:00,56.3,46.7,29.91,NW,315,0.0,0.0,70,0.00,,,0.00,WUHU21623XXSP,2013-09-22 00:52:00,
2013-09-21 20:57:00,55.9,46.3,29.91,NW,315,0.0,0.0,70,0.00,,,0.00,WUHU21623XXSP,2013-09-22 00:57:00,
2013-09-21 21:02:00,55.9,46.3,29.92,NW,315,0.0,0.0,70,0.00,,,0.00,WUHU21623XXSP,2013-09-22 01:02:00,
2013-09-21 21:07:00,55.6,46.0,29.92,NW,315,0.0,0.0,70,0.00,,,0.00,WUHU21623XXSP,2013-09-22 01:07:00,
2013-09-21 21:12:00,55.4,45.9,29.91,NW,315,0.0,0.0,70,0.00,,,0.00,WUHU21623XXSP,2013-09-22 01:12:00,
2013-09-21 21:17:00,55.2,46.0,29.92,NW,315,0.0,0.0,71,0.00,,,0.00,WUHU21623XXSP,2013-09-22 01:17:00,
2013-09-21 21:22:00,55.2,46.0,29.92,NW,315,0.0,0.0,71,0.00,,,0.00,WUHU21623XXSP,2013-09-22 01:22:00,
2013-09-21 21:27:00,54.7,45.8,29.92,NW,315,0.0,0.0,72,0.00,,,0.00,WUHU21623XXSP,2013-09-22 01:27:00,
2013-09-21 21:32:00,54.5,45.7,29.92,NW,315,0.0,0.0,72,0.00,,,0.00,WUHU21623XXSP,2013-09-22 01:32:00,
2013-09-21 21:37:00,54.3,45.5,29.92,NW,315,0.0,0.0,72,0.00,,,0.00,WUHU21623XXSP,2013-09-22 01:37:00,
2013-09-21 21:42:00,54.0,45.1,29.92,NW,315,0.0,0.0,72,0.00,,,0.00,WUHU21623XXSP,2013-09-22 01:42:00,
2013-09-21 21:47:00,53.8,45.3,29.92,NW,315,0.0,0.0,73,0.00,,,0.00,WUHU21623XXSP,2013-09-22 01:47:00,
2013-09-21 21:52:00,53.4,45.0,29.92,NW,315,0.0,0.0,73,0.00,,,0.00,WUHU21623XXSP,2013-09-22 01:52:00,
2013-09-21 21:57:00,53.2,44.8,29.92,NW,315,0.0,0.0,73,0.00,,,0.00,WUHU21623XXSP,2013-09-22 01:57:00,
2013-09-21 22:02:00,53.2,44.8,29.92,NW,315,0.0,0.0,73,0.00,,,0.00,WUHU21623XXSP,2013-09-22 02:02:00,
2013-09-21 22:07:00,52.9,44.5,29.92,NW,315,0.0,0.0,73,0.00,,,0.00,WUHU21623XXSP,2013-09-22 02:07:00,
2013-09-21 22:12:00,52.7,44.3,29.92,NW,315,0.0,0.0,73,0.00,,,0.00,WUHU21623XXSP,2013-09-22 02:12:00,
2013-09-21 22:17:00,52.5,44.5,29.92,NW,315,0.0,0.0,74,0.00,,,0.00,WUHU21623XXSP,2013-09-22 02:17:00,
2013-09-21 22:22:00,52.5,44.5,29.92,NW,315,0.0,0.0,74,0.00,,,0.00,WUHU21623XXSP,2013-09-22 02:22:00,
2013-09-21 22:27:00,52.3,44.3,29.92,NW,315,0.0,0.0,74,0.00,,,0.00,WUHU21623XXSP,2013-09-22 02:27:00,
2013-09-21 22:32:00,52.2,44.5,29.92,NW,315,0.0,0.0,75,0.00,,,0.00,WUHU21623XXSP,2013-09-22 02:32:00,
2013-09-21 22:37:00,52.2,44.5,29.93,NW,315,0.0,0.0,75,0.00,,,0.00,WUHU21623XXSP,2013-09-22 02:37:00,
2013-09-21 22:42:00,51.8,44.1,29.93,NW,315,0.0,0.0,75,0.00,,,0.00,WUHU21623XXSP,2013-09-22 02:42:00,
2013-09-21 22:47:00,51.6,44.0,29.93,NW,315,0.0,0.0,75,0.00,,,0.00,WUHU21623XXSP,2013-09-22 02:47:00,
2013-09-21 22:52:00,51.6,44.0,29.93,NW,315,0.0,0.0,75,0.00,,,0.00,WUHU21623XXSP,2013-09-22 02:52:00,
2013-09-21 22:57:00,51.6,44.3,29.93,NW,315,0.0,0.0,76,0.00,,,0.00,WUHU21623XXSP,2013-09-22 02:57:00,
2013-09-21 23:02:00,51.6,44.3,29.94,NW,315,0.0,0.0,76,0.00,,,0.00,WUHU21623XXSP,2013-09-22 03:02:00,
2013-09-21 23:07:00,51.6,44.3,29.93,NW,315,0.0,0.0,76,0.00,,,0.00,WUHU21623XXSP,2013-09-22 03:07:00,
2013-09-21 23:12:00,51.3,44.0,29.93,NW,315,0.0,0.0,76,0.00,,,0.00,WUHU21623XXSP,2013-09-22 03:12:00,
2013-09-21 23:17:00,51.1,43.8,29.94,NW,315,0.0,0.0,76,0.00,,,0.00,WUHU21623XXSP,2013-09-22 03:17:00,
2013-09-21 23:22:00,51.1,44.1,29.94,NW,315,0.0,0.0,77,0.00,,,0.00,WUHU21623XXSP,2013-09-22 03:22:00,
2013-09-21 23:27:00,50.9,43.9,29.94,NW,315,0.0,0.0,77,0.00,,,0.00,WUHU21623XXSP,2013-09-22 03:27:00,
2013-09-21 23:32:00,50.7,43.8,29.94,NW,315,0.0,0.0,77,0.00,,,0.00,WUHU21623XXSP,2013-09-22 03:32:00,
2013-09-21 23:37:00,50.7,43.8,29.94,NW,315,0.0,0.0,77,0.00,,,0.00,WUHU21623XXSP,2013-09-22 03:37:00,
2013-09-21 23:42:00,50.5,43.6,29.94,NW,315,0.0,0.0,77,0.00,,,0.00,WUHU21623XXSP,2013-09-22 03:42:00,
2013-09-21 23:47:00,50.4,43.4,29.94,NW,315,0.0,0.0,77,0.00,,,0.00,WUHU21623XXSP,2013-09-22 03:47:00,
2013-09-21 23:52:00,50.2,43.6,29.94,NW,315,0.0,0.0,78,0.00,,,0.00,WUHU21623XXSP,2013-09-22 03:52:00,
2013-09-21 23:57:00,50.2,43.6,29.94,NW,315,0.0,0.0,78,0.00,,,0.00,WUHU21623XXSP,2013-09-22 03:57:00,